When you browse on this site, cookies collect data to enhance your experience and personalize the content and advertising you see.
Visit our Privacy Policy to learn more. By continuing to use the site, you agree to this use of cookies and data.

Hourly Weather Vanadzor

Today, 9 August, Sunday

Time Temperature Precipitation Wind Pressure Humidity
00:00 +15°C° 0 mm 1 mps 633 mmHg 81%
01:00 +14°C° 0 mm 1 mps 633 mmHg 81%
02:00 +14°C° 0 mm 1 mps 632 mmHg 82%
03:00 +14°C° 0 mm 1 mps 632 mmHg 82%
04:00 +14°C° 0 mm 1 mps 632 mmHg 82%
05:00 +15°C° 0 mm 1 mps 633 mmHg 82%
06:00 +15°C° 0 mm 1 mps 633 mmHg 83%
07:00 +18°C° 0 mm 1 mps 633 mmHg 76%
08:00 +20°C° 0 mm 1 mps 634 mmHg 70%
09:00 +22°C° 0 mm 1 mps 634 mmHg 63%
10:00 +23°C° 0.1 mm 2 mps 634 mmHg 61%
11:00 +24°C° 0.1 mm 2 mps 634 mmHg 59%
12:00 +24°C° 0.1 mm 2 mps 634 mmHg 57%
13:00 +25°C° 0.3 mm 2 mps 634 mmHg 56%
14:00 +25°C° 0.3 mm 2 mps 633 mmHg 56%
15:00 +25°C° 0 mm 2 mps 633 mmHg 55%
16:00 +24°C° 0.1 mm 2 mps 633 mmHg 59%
17:00 +24°C° 0.1 mm 1 mps 633 mmHg 63%
18:00 +23°C° 0.1 mm 1 mps 633 mmHg 67%
19:00 +21°C° 0 mm 1 mps 632 mmHg 71%
20:00 +19°C° 0 mm 1 mps 632 mmHg 74%
21:00 +18°C° 0 mm 1 mps 632 mmHg 77%
22:00 +16°C° 0 mm 1 mps 632 mmHg 77%
23:00 +16°C° 0 mm 1 mps 632 mmHg 76%

Tomorrow, 10 August, Monday

Time Temperature Precipitation Wind Pressure Humidity
00:00 +16°C° 0 mm 1 mps 632 mmHg 75%
01:00 +15°C° 0 mm 1 mps 632 mmHg 75%
02:00 +15°C° 0 mm 1 mps 632 mmHg 75%
03:00 +15°C° 0 mm 1 mps 632 mmHg 75%
04:00 +15°C° 0 mm 1 mps 632 mmHg 76%
05:00 +15°C° 0 mm 1 mps 633 mmHg 77%
06:00 +15°C° 0 mm 1 mps 633 mmHg 78%
07:00 +18°C° 0 mm 1 mps 633 mmHg 73%
08:00 +20°C° 0 mm 1 mps 634 mmHg 67%
09:00 +21°C° 0 mm 2 mps 634 mmHg 62%
10:00 +23°C° 0 mm 2 mps 635 mmHg 60%
11:00 +24°C° 0 mm 2 mps 635 mmHg 58%
12:00 +25°C° 0 mm 2 mps 635 mmHg 56%
13:00 +26°C° 0.1 mm 3 mps 634 mmHg 57%
14:00 +26°C° 0.1 mm 3 mps 634 mmHg 58%
15:00 +26°C° 0.1 mm 3 mps 634 mmHg 58%
16:00 +25°C° 0.1 mm 3 mps 634 mmHg 63%
17:00 +24°C° 0.1 mm 2 mps 633 mmHg 68%
18:00 +23°C° 0.1 mm 2 mps 633 mmHg 72%
19:00 +20°C° 0 mm 2 mps 633 mmHg 76%
20:00 +19°C° 0 mm 2 mps 633 mmHg 79%
21:00 +18°C° 0 mm 1 mps 633 mmHg 82%
22:00 +18°C° 0 mm 1 mps 633 mmHg 83%
23:00 +16°C° 0 mm 1 mps 633 mmHg 84%

Day after tomorrow, 11 August, Tuesday

Time Temperature Precipitation Wind Pressure Humidity
00:00 +16°C° 0 mm 1 mps 633 mmHg 84%
01:00 +15°C° 0 mm 1 mps 633 mmHg 86%
02:00 +15°C° 0 mm 1 mps 633 mmHg 88%
03:00 +14°C° 0 mm 1 mps 633 mmHg 90%
04:00 +15°C° 0 mm 1 mps 633 mmHg 92%
05:00 +15°C° 0 mm 1 mps 633 mmHg 93%
06:00 +15°C° 0 mm 1 mps 633 mmHg 95%
07:00 +16°C° 0 mm 2 mps 633 mmHg 89%
08:00 +18°C° 0 mm 2 mps 634 mmHg 83%
09:00 +19°C° 0 mm 2 mps 634 mmHg 77%
10:00 +20°C° 0 mm 2 mps 634 mmHg 75%
11:00 +21°C° 0 mm 2 mps 634 mmHg 73%
12:00 +21°C° 0 mm 2 mps 634 mmHg 71%
13:00 +23°C° 0.2 mm 2 mps 634 mmHg 70%
14:00 +23°C° 0.2 mm 2 mps 633 mmHg 69%
15:00 +24°C° 0.2 mm 2 mps 633 mmHg 68%
16:00 +23°C° 0.3 mm 2 mps 633 mmHg 72%
17:00 +21°C° 0.3 mm 2 mps 633 mmHg 76%
18:00 +20°C° 0.3 mm 2 mps 633 mmHg 80%
19:00 +19°C° 0.1 mm 2 mps 633 mmHg 83%
20:00 +19°C° 0.1 mm 1 mps 633 mmHg 86%
21:00 +16°C° 0.1 mm 1 mps 633 mmHg 89%
22:00 +16°C° 0 mm 1 mps 633 mmHg 89%
23:00 +16°C° 0 mm 1 mps 634 mmHg 89%

12 August, Wednesday

Time Temperature Precipitation Wind Pressure Humidity
00:00 +16°C° 0 mm 1 mps 634 mmHg 89%
01:00 +15°C° 0 mm 1 mps 633 mmHg 90%
02:00 +15°C° 0 mm 1 mps 633 mmHg 91%
03:00 +14°C° 0 mm 1 mps 633 mmHg 92%
04:00 +15°C° 0 mm 1 mps 633 mmHg 92%
05:00 +15°C° 0 mm 1 mps 633 mmHg 92%
06:00 +15°C° 0 mm 1 mps 634 mmHg 92%
07:00 +18°C° 0 mm 1 mps 634 mmHg 86%
08:00 +18°C° 0 mm 2 mps 635 mmHg 79%
09:00 +20°C° 0 mm 2 mps 635 mmHg 73%
10:00 +21°C° 0.1 mm 2 mps 635 mmHg 71%
11:00 +21°C° 0.1 mm 2 mps 635 mmHg 69%
12:00 +23°C° 0.1 mm 2 mps 635 mmHg 67%
13:00 +23°C° 0.1 mm 2 mps 635 mmHg 67%
14:00 +24°C° 0.1 mm 2 mps 635 mmHg 66%
15:00 +24°C° 0.1 mm 2 mps 635 mmHg 66%
16:00 +23°C° 0.1 mm 2 mps 635 mmHg 69%
17:00 +23°C° 0.1 mm 2 mps 634 mmHg 72%
18:00 +21°C° 0.1 mm 2 mps 634 mmHg 75%
19:00 +20°C° 0 mm 2 mps 634 mmHg 78%
20:00 +19°C° 0 mm 1 mps 634 mmHg 81%
21:00 +18°C° 0 mm 1 mps 635 mmHg 83%
22:00 +16°C° 0 mm 1 mps 634 mmHg 84%
23:00 +16°C° 0 mm 1 mps 634 mmHg 85%

13 August, Thursday

Time Temperature Precipitation Wind Pressure Humidity
00:00 +16°C° 0 mm 1 mps 634 mmHg 85%
01:00 +15°C° 0 mm 1 mps 634 mmHg 87%
02:00 +15°C° 0 mm 1 mps 634 mmHg 88%
03:00 +15°C° 0 mm 1 mps 633 mmHg 89%
04:00 +15°C° 0 mm 1 mps 634 mmHg 91%
05:00 +15°C° 0 mm 1 mps 634 mmHg 93%
06:00 +15°C° 0 mm 1 mps 634 mmHg 94%
07:00 +16°C° 0.1 mm 1 mps 634 mmHg 89%
08:00 +18°C° 0.1 mm 2 mps 635 mmHg 84%
09:00 +19°C° 0.1 mm 2 mps 635 mmHg 78%
10:00 +20°C° 0.4 mm 2 mps 635 mmHg 76%
11:00 +21°C° 0.4 mm 2 mps 635 mmHg 74%
12:00 +21°C° 0.4 mm 2 mps 635 mmHg 72%
13:00 +23°C° 0.4 mm 2 mps 634 mmHg 71%
14:00 +23°C° 0.4 mm 2 mps 634 mmHg 70%
15:00 +23°C° 0.4 mm 2 mps 634 mmHg 69%
16:00 +23°C° 0.4 mm 2 mps 634 mmHg 72%
17:00 +21°C° 0.4 mm 2 mps 633 mmHg 75%
18:00 +21°C° 0.4 mm 2 mps 633 mmHg 79%
19:00 +19°C° 0.2 mm 2 mps 633 mmHg 82%
20:00 +19°C° 0.2 mm 1 mps 634 mmHg 85%
21:00 +18°C° 0.2 mm 1 mps 634 mmHg 88%
22:00 +18°C° 0.4 mm 1 mps 634 mmHg 89%
23:00 +18°C° 0.4 mm 1 mps 634 mmHg 90%

14 August, Friday

Time Temperature Precipitation Wind Pressure Humidity
00:00 +16°C° 0.4 mm 1 mps 633 mmHg 91%
01:00 +16°C° 0.1 mm 1 mps 633 mmHg 92%
02:00 +16°C° 0.1 mm 1 mps 633 mmHg 92%
03:00 +15°C° 0.1 mm 1 mps 633 mmHg 93%
04:00 +15°C° 0.1 mm 1 mps 633 mmHg 93%
05:00 +15°C° 0.1 mm 1 mps 633 mmHg 93%
06:00 +15°C° 0.1 mm 1 mps 633 mmHg 93%
07:00 +18°C° 0.1 mm 1 mps 633 mmHg 89%
08:00 +19°C° 0.1 mm 1 mps 633 mmHg 84%
09:00 +19°C° 0.1 mm 2 mps 634 mmHg 80%
10:00 +20°C° 0.2 mm 2 mps 634 mmHg 77%
11:00 +21°C° 0.2 mm 2 mps 633 mmHg 74%
12:00 +21°C° 0.2 mm 2 mps 633 mmHg 72%
13:00 +21°C° 0.3 mm 2 mps 633 mmHg 71%
14:00 +23°C° 0.3 mm 2 mps 633 mmHg 71%
15:00 +23°C° 0.3 mm 2 mps 633 mmHg 70%
16:00 +21°C° 0.4 mm 2 mps 633 mmHg 74%
17:00 +21°C° 0.4 mm 2 mps 632 mmHg 77%
18:00 +20°C° 0.4 mm 2 mps 632 mmHg 80%
19:00 +20°C° 0.1 mm 1 mps 633 mmHg 83%
20:00 +18°C° 0.1 mm 1 mps 633 mmHg 86%
21:00 +16°C° 0.1 mm 1 mps 633 mmHg 88%
22:00 +16°C° 0 mm 1 mps 633 mmHg 89%
23:00 +15°C° 0 mm 1 mps 633 mmHg 89%
Show more